Location: Fours
(44.3167°N, 6.7000°E)
Time: 10:09:45
(UTC+00:00)

Cosmos 1943 - Pass Details

Date: 30 November 2020
Orbit: 832 x 851 km, 71.0° (Epoch: 25 January)

Event Time Altitude Azimuth Distance (km) Brightness Sun altitude
Rises 18:04:31 0° 204° (SSW) 3,377 6.8 -22.4°
Reaches altitude 10° 18:06:56 10° 204° (SSW) 2,449 6.0 -22.9°
Maximum altitude 18:12:34 89° 291° (WNW) 850 3.1 -23.9°
Enters shadow 18:14:43 40° 24° (NNE) 1,225 3.8 -24.2°
